When you browse on this site, cookies collect data to enhance your experience and personalize the content and advertising you see.
Visit our Privacy Policy to learn more. By continuing to use the site, you agree to this use of cookies and data.
  • In Hungary
  • List of Countries
  • For 7 days
  • Water Temperature
  • Satellite Maps
  • Weather Map
  • News
  • Weather Widgets
  • user-avatar
    Login

    Hourly Weather Kabul

    Today, 21 April, Sunday

    Time Temperature Precipitation Wind Pressure Humidity
    00:00 +16°C° 0 mm 1 mps 609 mmHg 46%
    01:00 +16°C° 0 mm 1 mps 609 mmHg 48%
    02:00 +15°C° 0 mm 1 mps 608 mmHg 49%
    03:00 +15°C° 0 mm 1 mps 608 mmHg 51%
    04:00 +13°C° 0 mm 0 mps 608 mmHg 52%
    05:00 +14°C° 0 mm 1 mps 607 mmHg 51%
    06:00 +15°C° 0 mm 1 mps 608 mmHg 46%
    07:00 +16°C° 0 mm 1 mps 608 mmHg 42%
    08:00 +18°C° 0 mm 1 mps 609 mmHg 37%
    09:00 +18°C° 0 mm 2 mps 610 mmHg 34%
    10:00 +19°C° 0 mm 2 mps 610 mmHg 31%
    11:00 +21°C° 0 mm 2 mps 610 mmHg 29%
    12:00 +23°C° 0 mm 2 mps 610 mmHg 27%
    13:00 +23°C° 0 mm 2 mps 610 mmHg 25%
    14:00 +24°C° 0 mm 2 mps 611 mmHg 23%
    15:00 +24°C° 0 mm 2 mps 610 mmHg 23%
    16:00 +24°C° 0 mm 3 mps 610 mmHg 23%
    17:00 +24°C° 0 mm 3 mps 610 mmHg 23%
    18:00 +22°C° 0 mm 3 mps 610 mmHg 27%
    19:00 +20°C° 0 mm 3 mps 609 mmHg 31%
    20:00 +19°C° 0 mm 2 mps 609 mmHg 34%
    21:00 +18°C° 0 mm 2 mps 609 mmHg 36%
    22:00 +17°C° 0 mm 2 mps 609 mmHg 37%
    23:00 +17°C° 0 mm 2 mps 609 mmHg 39%

    Tomorrow, 22 April, Monday

    Time Temperature Precipitation Wind Pressure Humidity
    00:00 +16°C° 0 mm 2 mps 609 mmHg 39%
    01:00 +15°C° 0 mm 1 mps 609 mmHg 40%
    02:00 +15°C° 0 mm 1 mps 608 mmHg 40%
    03:00 +14°C° 0 mm 1 mps 608 mmHg 41%
    04:00 +14°C° 0 mm 1 mps 608 mmHg 42%
    05:00 +12°C° 0 mm 0 mps 608 mmHg 43%
    06:00 +15°C° 0 mm 1 mps 609 mmHg 39%
    07:00 +16°C° 0 mm 1 mps 609 mmHg 34%
    08:00 +18°C° 0 mm 1 mps 610 mmHg 29%
    09:00 +19°C° 0 mm 1 mps 611 mmHg 28%
    10:00 +21°C° 0 mm 1 mps 611 mmHg 26%
    11:00 +21°C° 0 mm 2 mps 611 mmHg 25%
    12:00 +23°C° 0 mm 2 mps 611 mmHg 23%
    13:00 +24°C° 0 mm 2 mps 611 mmHg 21%
    14:00 +25°C° 0 mm 2 mps 612 mmHg 20%
    15:00 +25°C° 0 mm 3 mps 611 mmHg 19%
    16:00 +25°C° 0 mm 3 mps 611 mmHg 19%
    17:00 +25°C° 0 mm 3 mps 611 mmHg 18%
    18:00 +24°C° 0 mm 3 mps 611 mmHg 22%
    19:00 +21°C° 0 mm 2 mps 611 mmHg 26%
    20:00 +20°C° 0 mm 2 mps 611 mmHg 30%
    21:00 +19°C° 0 mm 2 mps 611 mmHg 32%
    22:00 +18°C° 0 mm 2 mps 611 mmHg 34%
    23:00 +18°C° 0 mm 1 mps 611 mmHg 36%

    Day after tomorrow, 23 April, Tuesday

    Time Temperature Precipitation Wind Pressure Humidity
    00:00 +18°C° 0 mm 1 mps 610 mmHg 37%
    01:00 +16°C° 0 mm 1 mps 610 mmHg 38%
    02:00 +16°C° 0 mm 1 mps 609 mmHg 39%
    03:00 +16°C° 0 mm 1 mps 609 mmHg 39%
    04:00 +15°C° 0 mm 1 mps 609 mmHg 39%
    05:00 +15°C° 0 mm 1 mps 609 mmHg 39%
    06:00 +16°C° 0 mm 1 mps 609 mmHg 36%
    07:00 +16°C° 0 mm 1 mps 610 mmHg 32%
    08:00 +18°C° 0 mm 1 mps 610 mmHg 29%
    09:00 +19°C° 0 mm 1 mps 611 mmHg 27%
    10:00 +20°C° 0 mm 1 mps 611 mmHg 26%
    11:00 +20°C° 0 mm 2 mps 611 mmHg 25%
    12:00 +21°C° 0 mm 2 mps 611 mmHg 25%
    13:00 +21°C° 0 mm 2 mps 611 mmHg 26%
    14:00 +23°C° 0 mm 2 mps 611 mmHg 27%
    15:00 +21°C° 0.3 mm 2 mps 610 mmHg 32%
    16:00 +21°C° 0.3 mm 1 mps 610 mmHg 36%
    17:00 +20°C° 0.3 mm 1 mps 610 mmHg 41%
    18:00 +20°C° 0.3 mm 1 mps 610 mmHg 43%
    19:00 +18°C° 0.3 mm 2 mps 610 mmHg 45%
    20:00 +17°C° 0.3 mm 2 mps 610 mmHg 47%
    21:00 +17°C° 0.1 mm 2 mps 609 mmHg 49%
    22:00 +16°C° 0.1 mm 2 mps 609 mmHg 50%
    23:00 +15°C° 0.1 mm 1 mps 609 mmHg 52%

    24 April, Wednesday

    Time Temperature Precipitation Wind Pressure Humidity
    00:00 +15°C° 0.2 mm 2 mps 609 mmHg 54%
    01:00 +14°C° 0.2 mm 2 mps 608 mmHg 56%
    02:00 +13°C° 0.2 mm 2 mps 608 mmHg 58%
    03:00 +13°C° 0.2 mm 2 mps 608 mmHg 59%
    04:00 +13°C° 0.2 mm 2 mps 608 mmHg 61%
    05:00 +12°C° 0.2 mm 2 mps 608 mmHg 63%
    06:00 +12°C° 0.6 mm 2 mps 608 mmHg 64%
    07:00 +12°C° 0.6 mm 2 mps 608 mmHg 66%
    08:00 +12°C° 0.6 mm 2 mps 608 mmHg 68%
    09:00 +13°C° 0.2 mm 2 mps 608 mmHg 66%
    10:00 +14°C° 0.2 mm 2 mps 609 mmHg 64%
    11:00 +15°C° 0.2 mm 2 mps 609 mmHg 62%
    12:00 +15°C° 0.7 mm 2 mps 609 mmHg 63%
    13:00 +15°C° 0.7 mm 2 mps 609 mmHg 64%
    14:00 +15°C° 0.7 mm 2 mps 609 mmHg 65%
    15:00 +14°C° 0.4 mm 3 mps 608 mmHg 67%
    16:00 +13°C° 0.4 mm 3 mps 608 mmHg 68%
    17:00 +13°C° 0.4 mm 4 mps 607 mmHg 69%
    18:00 +13°C° 0.1 mm 3 mps 607 mmHg 71%
    19:00 +12°C° 0.1 mm 3 mps 608 mmHg 74%
    20:00 +12°C° 0.1 mm 2 mps 608 mmHg 76%
    21:00 +12°C° 0 mm 2 mps 608 mmHg 76%
    22:00 +12°C° 0 mm 2 mps 608 mmHg 75%
    23:00 +12°C° 0 mm 2 mps 608 mmHg 75%

    25 April, Thursday

    Time Temperature Precipitation Wind Pressure Humidity
    00:00 +12°C° 0 mm 2 mps 608 mmHg 74%
    01:00 +10°C° 0 mm 2 mps 608 mmHg 73%
    02:00 +10°C° 0 mm 2 mps 607 mmHg 72%
    03:00 +10°C° 0 mm 2 mps 607 mmHg 72%
    04:00 +10°C° 0 mm 1 mps 607 mmHg 72%
    05:00 +10°C° 0 mm 1 mps 607 mmHg 72%
    06:00 +11°C° 0 mm 1 mps 608 mmHg 66%
    07:00 +11°C° 0 mm 1 mps 608 mmHg 61%
    08:00 +12°C° 0 mm 1 mps 609 mmHg 55%
    09:00 +14°C° 0 mm 1 mps 610 mmHg 48%
    10:00 +15°C° 0 mm 2 mps 610 mmHg 40%
    11:00 +16°C° 0 mm 2 mps 611 mmHg 33%
    12:00 +17°C° 0 mm 3 mps 611 mmHg 30%
    13:00 +18°C° 0 mm 3 mps 611 mmHg 27%
    14:00 +19°C° 0 mm 4 mps 611 mmHg 25%
    15:00 +19°C° 0 mm 4 mps 611 mmHg 24%
    16:00 +19°C° 0 mm 5 mps 610 mmHg 24%
    17:00 +19°C° 0 mm 5 mps 610 mmHg 24%
    18:00 +18°C° 0 mm 4 mps 610 mmHg 28%
    19:00 +15°C° 0 mm 4 mps 610 mmHg 32%
    20:00 +14°C° 0 mm 3 mps 610 mmHg 36%
    21:00 +13°C° 0 mm 3 mps 610 mmHg 38%
    22:00 +13°C° 0 mm 2 mps 609 mmHg 40%
    23:00 +12°C° 0 mm 2 mps 609 mmHg 41%

    26 April, Friday

    Time Temperature Precipitation Wind Pressure Humidity
    00:00 +12°C° 0 mm 2 mps 609 mmHg 42%
    01:00 +12°C° 0 mm 2 mps 609 mmHg 42%
    02:00 +11°C° 0 mm 1 mps 608 mmHg 43%
    03:00 +11°C° 0 mm 1 mps 608 mmHg 44%
    04:00 +10°C° 0 mm 1 mps 608 mmHg 44%
    05:00 +10°C° 0 mm 1 mps 608 mmHg 45%
    06:00 +11°C° 0 mm 1 mps 608 mmHg 41%
    07:00 +12°C° 0 mm 1 mps 609 mmHg 37%
    08:00 +13°C° 0 mm 1 mps 610 mmHg 32%
    09:00 +14°C° 0 mm 1 mps 610 mmHg 29%
    10:00 +15°C° 0 mm 1 mps 610 mmHg 26%
    11:00 +18°C° 0 mm 1 mps 611 mmHg 23%
    12:00 +18°C° 0 mm 2 mps 611 mmHg 22%
    13:00 +19°C° 0 mm 2 mps 611 mmHg 20%
    14:00 +20°C° 0 mm 3 mps 611 mmHg 18%
    15:00 +20°C° 0 mm 3 mps 611 mmHg 19%
    16:00 +20°C° 0 mm 3 mps 611 mmHg 19%
    17:00 +20°C° 0 mm 4 mps 610 mmHg 20%
    18:00 +18°C° 0 mm 4 mps 610 mmHg 23%
    19:00 +17°C° 0 mm 4 mps 610 mmHg 26%
    20:00 +14°C° 0 mm 4 mps 610 mmHg 30%
    21:00 +13°C° 0 mm 3 mps 610 mmHg 32%
    22:00 +12°C° 0 mm 3 mps 610 mmHg 34%
    23:00 +13°C° 0 mm 2 mps 609 mmHg 35%
    Show more